CAPE
0 0 0 0 0 0 0 0 0 0 0 0 0 0 0 0 0 0 0 0 0 0 168 682 665 856 1463 1634 1317 1274 1254 1381 1290 1221 1167 1070 831 715 515 488 355 183 95 62 82 58 86 331 1021
0 0 0 0 0 0 0 0 0 0 0 0 0 0 0 0 0 0 0 0 0 0 80 399 771 1099 1297 1535 1313 1195 1226 1148 1399 1323 1189 1140 916 702 501 368 363 213 170 105 61 85 68 170 906
0 0 0 0 0 0 0 0 0 0 0 0 0 0 0 0 0 0 0 0 0 0 21 176 237 365 583 1025 1389 1388 1214 1222 1264 1071 1084 1104 1048 710 673 521 385 243 266 205 108 66 92 121 719
0 0 0 0 0 0 0 0 0 0 0 0 0 0 0 0 0 0 0 0 0 0 0 0 0 1 33 70 504 1070 1198 1036 1027 1000 1047 1032 936 760 741 682 459 236 273 457 430 299 84 107 457
0 0 0 0 0 0 0 0 0 0 0 0 0 0 0 0 0 0 0 0 0 0 0 0 0 0 0 9 87 303 921 1005 892 909 859 852 843 789 714 657 523 391 395 621 651 740 524 119 216
0 0 0 0 0 0 0 0 0 0 0 0 0 0 0 0 0 0 0 0 0 0 0 0 0 0 0 0 11 56 134 375 826 867 785 794 687 760 734 618 575 527 576 667 630 656 471 667 141
0 0 0 0 0 0 0 0 0 0 0 0 0 0 0 0 0 0 0 0 0 0 0 0 0 0 0 0 0 0 1 129 239 311 544 735 715 638 623 550 487 528 691 622 506 498 425 476 421
0 0 0 0 0 0 0 0 0 0 0 0 0 0 0 0 0 0 0 0 0 0 0 0 0 0 0 0 0 0 0 0 0 96 297 288 451 565 586 479 405 285 384 558 556 408 369 424 598
0 0 0 0 0 0 0 0 0 0 0 0 0 0 0 0 0 0 0 0 0 0 0 0 0 0 0 0 0 0 0 0 0 0 0 130 150 189 214 297 360 323 232 218 480 382 328 412 575
0 0 0 0 0 0 0 0 0 0 0 0 0 0 0 0 0 0 0 0 0 0 0 0 0 0 0 0 0 0 0 0 0 0 0 0 46 174 179 192 253 272 285 222 237 281 332 420 587
0 0 0 0 0 0 0 0 0 0 0 0 0 0 0 0 0 0 0 0 0 0 0 0 0 0 0 0 0 0 0 0 0 0 0 0 0 7 210 241 182 186 207 288 298 338 425 471 520
0 0 0 0 0 0 0 0 0 0 0 0 0 0 0 0 0 0 0 0 0 0 0 0 0 0 0 0 0 0 0 0 0 0 0 0 0 2 3 137 186 217 227 292 279 236 226 344 409
0 0 0 0 0 0 0 0 0 0 0 0 0 0 0 0 0 0 0 0 0 0 0 0 0 0 0 0 0 0 0 0 0 0 0 0 1 7 10 21 105 180 248 256 229 147 132 151 143
0 0 0 0 0 0 0 0 0 0 0 0 0 0 0 0 0 0 0 0 0 0 0 0 0 0 0 0 0 0 0 0 0 0 0 0 0 0 7 19 30 108 222 217 154 63 52 77 72
0 0 0 0 0 0 0 0 0 0 0 0 0 0 0 0 0 0 0 0 0 0 0 0 0 0 0 0 0 0 0 0 0 0 0 0 0 0 0 0 9 50 164 215 121 3 1 0 6
0 0 0 0 0 0 0 0 0 0 0 0 0 0 0 0 0 0 0 0 0 0 0 0 0 0 0 0 0 0 0 0 0 0 0 0 0 0 0 0 0 3 71 230 173 56 1 1 0
0 0 0 0 0 0 0 0 0 0 0 0 0 0 0 0 0 0 0 0 0 0 0 0 0 0 0 0 0 0 0 0 0 0 0 0 0 0 0 0 0 0 0 158 324 91 3 2 3
0 0 0 0 0 0 0 0 0 0 0 0 0 0 0 0 0 0 0 0 0 0 0 0 0 0 0 0 0 0 0 0 0 0 0 0 0 0 0 0 0 0 0 1 151 98 10 1 2
0 0 0 0 0 0 0 0 0 0 0 0 0 0 0 0 0 0 0 0 0 0 0 0 0 0 0 0 0 0 0 0 0 0 0 0 0 1 0 0 0 0 0 0 0 138 144 43 1
0 0 0 0 0 0 0 0 0 0 0 0 0 0 0 0 0 0 0 0 0 0 0 0 0 0 0 0 0 0 0 0 0 0 0 0 0 0 0 0 0 0 0 2 0 0 182 68 11
0 0 0 0 0 0 0 0 0 0 0 0 0 0 0 0 0 0 0 0 0 0 0 0 0 0 0 0 0 0 0 0 0 0 0 0 0 0 6 7 5 0 0 10 2 0 2 27 7
0 0 0 0 0 0 0 0 0 0 0 0 0 0 0 0 0 0 0 0 0 0 0 0 0 0 0 0 0 0 0 0 0 0 0 0 0 0 0 20 20 0 0 0 23 1 0 7 49
0 0 0 0 0 0 0 0 0 0 0 0 0 0 0 0 0 0 0 0 0 0 0 0 0 0 0 0 0 0 0 0 0 0 0 0 0 0 0 0 15 10 0 0 13 19 0 0 25
0 0 0 0 0 0 0 0 0 0 0 0 0 0 0 0 0 0 0 0 0 0 0 0 0 0 0 0 0 0 0 0 0 0 0 0 0 0 0 0 21 17 0 0 5 2 6 0 6
0 0 0 0 0 0 0 0 0 0 0 0 0 0 0 0 0 0 0 0 0 0 0 0 0 0 0 0 0 0 0 0 0 0 0 0 0 0 0 0 0 27 9 0 1 5 2 0 2
0 0 0 0 0 0 0 0 0 0 0 0 0 0 0 0 0 0 0 0 0 0 0 0 0 0 0 0 0 0 0 0 0 0 0 0 0 0 0 0 0 1 7 0 0 5 2 0 1
0 0 0 0 0 0 0 0 0 0 0 0 0 0 0 0 0 0 0 0 0 0 0 0 0 0 0 0 0 0 0 0 0 0 0 0 0 0 0 0 0 0 1 0 0 0 2 4 0
0 0 0 0 0 0 0 0 0 0 0 0 0 0 0 0 0 0 0 0 0 0 0 0 0 0 0 0 0 0 0 0 0 0 0 0 0 0 0 0 0 0 2 0 0 0 2 3 5
0 0 0 0 0 0 0 0 0 0 0 0 0 0 0 0 0 0 0 0 0 0 0 0 0 0 0 0 0 0 0 0 0 0 0 0 2 0 0 0 0 0 0 1 0 0 0 2 1
0 0 0 0 0 0 0 0 0 0 0 0 0 0 0 0 0 0 0 0 0 0 0 0 0 0 0 0 0 0 0 0 0 0 0 0 0 0 0 0 0 0 0 1 1 0 0 2 1
CIN
-0 -0 -0 -0 -0 -0 -0 -0 -0 -0 -0 -0 -0 -0 -0 -0 -0 -0 -0 -0 -0 -0 -237 -75 -84 -46 -1 -1 -3 -5 -8 -3 -2 -0 -0 -1 -10 -13 -41 -42 -45 -81 -109 -127 -128 -147 -142 -57 -1
-0 -0 -0 -0 -0 -0 -0 -0 -0 -0 -0 -0 -0 -0 -0 -0 -0 -0 -0 -0 -0 -0 -304 -122 -31 -9 -2 -1 -3 -5 -4 -5 -0 -0 -0 -2 -2 -8 -24 -46 -58 -77 -78 -103 -127 -115 -135 -82 -1
-0 -0 -0 -0 -0 -0 -0 -0 -0 -0 -0 -0 -0 -0 -0 -0 -0 -0 -0 -0 -0 -0 -65 -277 -243 -156 -52 -3 -1 -1 -4 -4 -3 -7 -4 -0 -1 -3 -4 -10 -31 -76 -62 -52 -82 -117 -101 -101 -1
-0 -0 -0 -0 -0 -0 -0 -0 -0 -0 -0 -0 -0 -0 -0 -0 -0 -0 -0 -0 -0 -0 -0 -0 -3 -10 -418 -389 -87 -3 -2 -4 -7 -4 -1 -0 -0 -3 -4 -2 -19 -52 -59 -26 -9 -16 -96 -86 -9
-0 -0 -0 -0 -0 -0 -0 -0 -0 -0 -0 -0 -0 -0 -0 -0 -0 -0 -0 -0 -0 -0 -0 -0 -0 -0 -0 -486 -326 -153 -7 -1 -4 -5 -6 -6 -4 -3 -8 -10 -15 -25 -19 -3 -0 -0 -1 -70 -41
-0 -0 -0 -0 -0 -0 -0 -0 -0 -0 -0 -0 -0 -0 -0 -0 -0 -0 -0 -0 -0 -0 -0 -0 -0 -0 -0 -0 -282 -324 -245 -78 -7 -1 -4 -5 -10 -8 -4 -7 -14 -16 -8 -1 -6 -0 -14 -1 -61
-0 -0 -0 -0 -0 -0 -0 -0 -0 -0 -0 -0 -0 -0 -0 -0 -0 -0 -0 -0 -0 -0 -0 -0 -0 -0 -0 -0 -0 -0 -89 -227 -115 -96 -20 -0 -3 -6 -10 -20 -27 -7 -4 -7 -13 -17 -28 -17 -10
-0 -0 -0 -0 -0 -0 -0 -0 -0 -0 -0 -0 -0 -0 -0 -0 -0 -0 -0 -0 -0 -0 -0 -0 -0 -0 -0 -0 -0 -0 -0 -0 -0 -230 -91 -94 -31 -9 -8 -16 -35 -56 -23 -15 -18 -33 -41 -42 -9
-0 -0 -0 -0 -0 -0 -0 -0 -0 -0 -0 -0 -0 -0 -0 -0 -0 -0 -0 -0 -0 -0 -0 -0 -0 -0 -0 -0 -0 -0 -0 -0 -0 -0 -0 -195 -213 -159 -119 -67 -53 -59 -63 -48 -19 -31 -51 -50 -21
-0 -0 -0 -0 -0 -0 -0 -0 -0 -0 -0 -0 -0 -0 -0 -0 -0 -0 -0 -0 -0 -0 -0 -0 -0 -0 -0 -0 -0 -0 -0 -0 -0 -0 -0 -0 -171 -184 -175 -163 -83 -87 -70 -63 -47 -35 -43 -35 -13
-0 -0 -0 -0 -0 -0 -0 -0 -0 -0 -0 -0 -0 -0 -0 -0 -0 -0 -0 -0 -0 -0 -0 -0 -0 -0 -0 -0 -0 -0 -0 -0 -0 -0 -0 -0 -0 -35 -143 -109 -138 -101 -91 -60 -50 -47 -30 -30 -23
-0 -0 -0 -0 -0 -0 -0 -0 -0 -0 -0 -0 -0 -0 -0 -0 -0 -0 -0 -0 -0 -0 -0 -0 -0 -0 -0 -0 -0 -0 -0 -0 -0 -0 -0 -0 -0 -0 -8 -189 -135 -100 -63 -45 -62 -67 -59 -45 -22
-0 -0 -0 -0 -0 -0 -0 -0 -0 -0 -0 -0 -0 -0 -0 -0 -0 -0 -0 -0 -0 -0 -0 -0 -0 -0 -0 -0 -0 -0 -0 -0 -0 -0 -0 -0 -0 -0 -3 -203 -178 -103 -46 -38 -74 -136 -110 -71 -52
-0 -0 -0 -0 -0 -0 -0 -0 -0 -0 -0 -0 -0 -0 -0 -0 -0 -0 -0 -0 -0 -0 -0 -0 -0 -0 -0 -0 -0 -0 -0 -0 -0 -0 -0 -0 -0 -0 -0 -0 -248 -121 -49 -30 -71 -139 -163 -155 -110
-0 -0 -0 -0 -0 -0 -0 -0 -0 -0 -0 -0 -0 -0 -0 -0 -0 -0 -0 -0 -0 -0 -0 -0 -0 -0 -0 -0 -0 -0 -0 -0 -0 -0 -0 -0 -0 -0 -0 -0 -0 -189 -38 -20 -54 -185 -0 -7 -148
-0 -0 -0 -0 -0 -0 -0 -0 -0 -0 -0 -0 -0 -0 -0 -0 -0 -0 -0 -0 -0 -0 -0 -0 -0 -0 -0 -0 -0 -0 -0 -0 -0 -0 -0 -0 -0 -0 -0 -0 -0 -0 -92 -0 -7 -71 -0 -0 -0
-0 -0 -0 -0 -0 -0 -0 -0 -0 -0 -0 -0 -0 -0 -0 -0 -0 -0 -0 -0 -0 -0 -0 -0 -0 -0 -0 -0 -0 -0 -0 -0 -0 -0 -0 -0 -0 -0 -0 -0 -0 -0 -0 -24 -0 -28 -81 -0 -0
-0 -0 -0 -0 -0 -0 -0 -0 -0 -0 -0 -0 -0 -0 -0 -0 -0 -0 -0 -0 -0 -0 -0 -0 -0 -0 -0 -0 -0 -0 -0 -0 -0 -0 -0 -0 -0 -0 -0 -0 -0 -0 -0 -0 -5 -21 -18 -0 -0
-0 -0 -0 -0 -0 -0 -0 -0 -0 -0 -0 -0 -0 -0 -0 -0 -0 -0 -0 -0 -0 -0 -0 -0 -0 -0 -0 -0 -0 -0 -0 -0 -0 -0 -0 -0 -0 -3 -0 -0 -0 -0 -0 -0 -0 -9 -5 -12 -0
-0 -0 -0 -0 -0 -0 -0 -0 -0 -0 -0 -0 -0 -0 -0 -0 -0 -0 -0 -0 -0 -0 -0 -0 -0 -0 -0 -0 -0 -0 -0 -0 -0 -0 -0 -0 -0 -0 -4 -0 -0 -0 -0 -0 -0 -0 -4 -16 -50
-0 -0 -0 -0 -0 -0 -0 -0 -0 -0 -0 -0 -0 -0 -0 -0 -0 -0 -0 -0 -0 -0 -0 -0 -0 -0 -0 -0 -0 -0 -0 -0 -0 -0 -0 -0 -0 -0 -8 -16 -23 -0 -0 -0 -1 -0 -0 -1 -11
-0 -0 -0 -0 -0 -0 -0 -0 -0 -0 -0 -0 -0 -0 -0 -0 -0 -0 -0 -0 -0 -0 -0 -0 -0 -0 -0 -0 -0 -0 -0 -0 -0 -0 -0 -0 -0 -0 -0 -7 -16 -7 -0 -0 -0 -0 -0 -1 -4
-0 -0 -0 -0 -0 -0 -0 -0 -0 -0 -0 -0 -0 -0 -0 -0 -0 -0 -0 -0 -0 -0 -0 -0 -0 -0 -0 -0 -0 -0 -0 -0 -0 -0 -0 -0 -0 -0 -0 -0 -13 -38 -0 -0 -0 -0 -0 -0 -0
-0 -0 -0 -0 -0 -0 -0 -0 -0 -0 -0 -0 -0 -0 -0 -0 -0 -0 -0 -0 -0 -0 -0 -0 -0 -0 -0 -0 -0 -0 -0 -0 -0 -0 -0 -0 -0 -0 -0 -0 -7 -29 -0 -0 -0 -0 -0 -0 -0
-0 -0 -0 -0 -0 -0 -0 -0 -0 -0 -0 -0 -0 -0 -0 -0 -0 -0 -0 -0 -0 -0 -0 -0 -0 -0 -0 -0 -0 -0 -0 -0 -0 -0 -0 -0 -0 -0 -0 -0 -0 -4 -26 -0 -1 -0 -0 -0 -0
-0 -0 -0 -0 -0 -0 -0 -0 -0 -0 -0 -0 -0 -0 -0 -0 -0 -0 -0 -0 -0 -0 -0 -0 -0 -0 -0 -0 -0 -0 -0 -0 -0 -0 -0 -0 -0 -0 -0 -0 -0 -0 -13 -0 -0 -0 -0 -3 -6
-0 -0 -0 -0 -0 -0 -0 -0 -0 -0 -0 -0 -0 -0 -0 -0 -0 -0 -0 -0 -0 -0 -0 -0 -0 -0 -0 -0 -0 -0 -0 -0 -0 -0 -0 -0 -0 -0 -0 -0 -0 -0 -7 -0 -0 -0 -0 -1 -0
-0 -0 -0 -0 -0 -0 -0 -0 -0 -0 -0 -0 -0 -0 -0 -0 -0 -0 -0 -0 -0 -0 -0 -0 -0 -0 -0 -0 -0 -0 -0 -0 -0 -0 -0 -0 -0 -0 -0 -0 -0 -0 -0 -0 -0 -0 -0 -0 -0
-0 -0 -0 -0 -0 -0 -0 -0 -0 -0 -0 -0 -0 -0 -0 -0 -0 -0 -0 -0 -0 -0 -0 -0 -0 -0 -0 -0 -0 -0 -0 -0 -0 -0 -0 -0 -0 -0 -0 -0 -0 -0 -0 -0 -0 -0 -0 -0 -0
-0 -0 -0 -0 -0 -0 -0 -0 -0 -0 -0 -0 -0 -0 -0 -0 -0 -0 -0 -0 -0 -0 -0 -0 -0 -0 -0 -0 -0 -0 -0 -0 -0 -0 -0 -0 -0 -0 -0 -0 -0 -0 -0 -0 -0 -0 -0 -0 -0
Wind_Speed
12 12 15 17 20 23 23 21 22 21 19 20 20 21 22 23 20 20 15 1 22 9 22 21 19 14 10 9 7 6 6 5 5 4 3 8 11 12 14 20 24 27 28 28 27 25 24 24 22
12 14 17 18 20 21 21 22 23 21 19 18 20 22 21 25 23 19 16 18 28 28 27 25 24 24 21 12 6 5 4 3 2 2 1 2 8 14 15 17 17 22 25 28 29 28 26 24 22
13 14 16 17 18 19 19 20 22 19 20 20 18 22 19 10 22 16 20 29 30 31 29 27 26 26 25 26 25 9 6 5 3 1 2 4 4 5 14 17 17 18 21 25 28 30 28 26 25
18 16 16 18 20 21 19 20 19 18 19 19 18 23 22 29 19 25 28 30 29 29 30 30 30 29 28 28 21 27 18 10 11 9 8 7 7 8 8 12 18 16 17 20 24 26 30 29 28
16 16 17 16 18 18 19 19 19 18 17 17 18 19 18 26 26 27 29 30 30 30 31 31 32 31 31 30 29 28 33 32 24 19 18 16 14 13 12 11 11 17 19 19 21 26 28 30 30
16 16 17 17 15 16 19 19 18 21 21 17 19 17 19 20 27 29 29 30 31 31 32 32 33 33 33 33 33 33 32 30 35 33 29 27 23 21 18 16 15 12 18 22 21 22 22 27 30
17 17 16 16 14 17 16 17 18 17 17 18 15 16 16 25 26 28 30 30 31 32 33 34 34 34 35 35 36 36 37 36 33 37 38 35 29 26 24 21 20 19 16 20 23 24 25 24 26
17 17 18 17 17 16 16 18 17 17 19 15 16 16 16 21 25 27 29 31 32 33 34 35 36 37 37 36 37 38 38 38 39 39 38 38 38 35 30 30 27 25 22 19 21 25 27 26 23
17 18 20 18 17 15 17 16 19 19 18 20 18 16 17 22 26 29 30 32 32 34 35 35 37 38 38 38 39 39 39 40 40 40 40 40 37 36 35 34 31 31 28 25 22 23 26 27 23
19 18 18 17 16 16 17 15 14 15 17 18 19 19 21 24 27 29 31 32 34 34 35 37 37 39 40 40 41 41 41 40 40 40 41 41 40 35 34 34 35 34 31 29 28 26 25 25 23
19 18 16 18 17 18 17 17 15 11 16 15 15 17 21 25 28 29 30 31 33 32 33 37 39 41 41 42 42 42 42 42 42 42 43 44 42 40 37 35 36 36 35 31 29 29 28 23 21
21 14 16 18 20 18 17 16 16 15 14 12 14 16 20 24 27 28 29 32 33 34 34 38 40 41 42 42 43 45 45 44 45 45 45 44 44 44 42 39 39 37 34 33 32 29 27 23 21
15 14 15 18 19 17 17 15 15 14 11 13 15 18 20 23 26 28 29 31 33 36 37 39 40 42 44 45 46 45 46 45 46 47 47 47 47 46 46 45 42 39 35 32 32 29 25 23 21
16 16 15 17 14 14 16 17 17 11 10 14 17 18 20 23 25 28 29 32 34 35 38 39 41 44 45 47 47 46 46 46 47 47 48 47 47 48 48 48 46 43 38 33 31 29 26 24 22
17 18 17 12 12 14 17 17 14 8 9 13 15 17 19 22 25 27 27 29 33 36 38 43 46 47 49 50 50 49 48 50 51 49 47 50 49 49 50 50 50 46 41 37 33 31 29 25 23
20 18 18 15 11 16 18 21 15 6 8 13 15 18 20 22 24 25 25 28 35 41 41 47 49 50 51 51 51 50 49 49 52 51 51 52 52 51 53 50 50 48 46 39 37 35 33 30 27
22 22 21 22 11 16 15 21 10 5 10 13 16 18 20 22 23 24 25 31 38 44 44 49 50 50 52 53 53 53 51 49 52 54 56 54 52 53 51 51 51 51 50 47 43 39 38 34 30
26 26 25 23 19 12 15 17 12 9 12 15 17 19 20 22 23 22 26 31 38 43 43 46 48 50 53 53 55 54 53 52 54 58 57 53 53 52 51 53 51 51 50 49 49 46 45 40 33
24 25 25 22 23 17 18 18 18 13 14 17 18 18 19 22 20 22 26 32 39 43 44 46 49 52 54 55 58 58 57 59 62 59 54 50 50 49 50 49 51 49 51 52 49 45 52 41 39
23 26 26 30 25 26 26 23 23 17 17 16 16 17 19 21 23 23 27 34 39 43 44 48 50 53 55 55 55 56 59 60 59 57 52 50 48 48 43 44 47 48 50 52 55 51 49 45 41
25 27 31 32 31 28 31 33 23 18 15 14 14 15 18 21 23 26 29 35 38 43 44 49 51 52 54 55 57 58 57 57 58 53 50 44 46 42 44 41 45 46 48 54 52 51 49 43 44
31 27 29 32 37 38 28 38 29 20 18 15 15 15 18 20 22 25 30 34 37 41 45 49 49 51 53 55 57 60 61 64 59 56 48 49 48 51 46 43 38 45 48 53 55 47 53 50 40
30 29 31 33 34 36 32 33 33 20 21 18 15 17 18 19 22 26 31 34 36 40 47 48 48 50 52 55 56 58 58 56 56 53 48 48 48 48 47 45 37 43 49 48 55 58 52 52 52
29 35 36 33 31 38 32 26 37 27 24 18 15 16 17 19 22 27 30 32 37 42 47 50 50 52 54 55 55 55 55 57 56 52 46 44 49 47 46 44 36 43 48 49 50 52 54 57 53
29 36 46 44 40 38 29 34 35 29 25 15 15 16 16 19 23 29 33 38 46 48 49 50 50 54 55 56 56 54 55 55 54 48 43 39 49 49 47 45 46 46 48 47 49 53 54 48 47
31 30 38 49 46 44 36 38 36 26 20 13 13 15 18 20 24 30 37 46 46 45 51 51 52 55 57 56 56 55 54 52 52 44 44 39 37 50 49 48 46 49 47 46 44 49 50 53 55
32 34 31 40 38 43 36 35 32 23 18 18 17 18 20 22 28 36 38 43 43 45 51 50 51 55 56 56 56 56 55 54 50 46 50 44 35 47 51 48 45 46 47 46 45 45 50 51 48
31 27 37 34 43 46 41 44 39 25 23 20 21 22 23 27 32 33 36 42 41 46 48 47 50 55 55 56 55 55 58 53 47 52 49 48 48 42 48 49 49 47 45 45 45 45 45 47 47
34 33 33 32 31 44 50 46 31 26 22 21 22 23 25 26 30 33 41 41 42 46 47 49 52 54 56 56 55 55 57 52 50 50 49 48 46 47 50 50 48 46 46 47 45 45 44 43 46
31 33 30 37 42 36 42 52 33 27 20 21 23 23 23 26 32 36 40 40 45 48 48 50 52 54 55 55 54 55 55 52 51 45 42 37 39 43 49 48 49 48 46 45 45 45 45 48 47
Wind_Direction
166 164 130 103 83 73 75 80 77 71 76 74 80 75 71 71 70 72 83 55 318 333 30 22 36 66 82 92 117 120 117 114 118 122 45 360 349 346 339 319 308 297 292 289 289 290 291 290 290
169 147 111 91 73 67 72 71 62 67 77 81 82 73 77 56 63 74 56 305 333 338 5 10 360 353 353 31 67 62 88 83 133 139 135 23 344 333 332 328 324 310 297 290 286 286 287 286 287
205 129 86 70 75 71 74 63 56 68 63 64 77 62 60 65 44 61 343 340 355 356 4 360 358 353 345 327 320 12 5 358 346 305 285 332 324 323 323 323 323 318 306 296 289 283 284 283 283
343 50 67 52 56 49 59 52 53 62 56 55 68 54 59 19 46 5 354 353 350 340 339 345 344 345 343 336 344 325 338 341 335 327 318 311 309 317 318 318 314 315 312 303 295 289 280 280 279
29 29 24 43 41 48 39 43 45 43 47 49 52 51 49 29 19 0 354 353 350 346 341 340 336 324 325 332 333 329 311 309 320 321 318 315 312 311 307 307 304 307 305 303 299 291 285 278 274
358 16 20 28 35 37 27 30 33 30 34 43 44 43 38 33 12 2 355 352 351 349 343 339 337 335 331 321 319 320 322 321 306 307 309 309 308 308 307 305 301 294 299 299 296 294 290 283 273
356 355 4 9 24 15 21 28 19 28 30 27 35 32 36 11 5 1 357 353 349 348 346 342 340 335 335 331 327 320 314 314 317 305 300 302 304 304 303 301 300 297 291 293 292 290 289 285 278
360 355 349 355 2 6 15 16 20 23 20 38 26 21 13 12 7 2 357 354 352 350 347 346 345 343 341 340 333 325 320 319 312 310 304 300 299 298 298 297 296 294 291 287 287 287 285 284 278
7 347 342 349 354 4 5 8 13 22 23 21 19 24 25 12 3 359 358 353 353 350 349 347 350 347 346 344 340 335 328 319 314 310 308 303 302 299 297 293 291 290 288 286 284 284 284 282 274
356 348 348 358 360 355 356 2 8 8 17 18 18 20 13 6 4 359 356 354 352 352 352 350 349 345 344 342 338 337 331 326 322 314 308 307 304 302 298 294 289 287 285 283 282 281 281 280 272
3 349 356 353 355 352 350 355 359 12 355 0 5 10 8 4 0 359 358 359 356 354 353 348 345 342 342 340 336 332 328 324 321 317 312 304 304 303 300 295 290 285 282 280 279 279 279 274 266
357 7 358 353 350 349 349 352 354 350 358 20 15 12 7 1 359 358 356 355 354 354 353 348 346 344 343 342 336 330 325 322 318 314 312 311 305 300 298 296 291 285 281 277 276 276 274 268 261
15 14 2 354 352 353 352 348 348 360 20 18 13 5 2 0 359 357 355 353 352 350 350 349 344 342 339 337 335 331 327 322 318 314 310 308 305 302 297 293 289 286 280 274 273 272 267 263 258
18 10 1 355 354 357 351 349 347 355 14 10 1 360 360 358 356 353 351 349 349 349 348 349 347 341 338 337 335 334 329 324 318 314 310 308 306 303 299 293 287 285 280 273 269 266 261 258 252
14 6 8 10 9 357 350 341 331 354 8 360 358 355 356 356 355 353 351 351 350 347 346 345 343 339 337 333 331 330 327 324 319 315 312 307 304 302 300 294 288 283 280 273 267 263 259 255 250
13 14 8 8 1 349 345 335 341 358 357 348 348 347 349 352 353 353 354 353 349 346 344 342 341 339 338 336 334 330 326 324 322 317 312 308 304 300 296 292 289 289 280 270 263 257 253 249 245
10 3 359 356 352 349 342 339 340 338 337 337 338 339 343 347 352 354 355 350 347 344 342 342 343 342 338 336 333 330 326 323 321 317 310 306 304 301 297 293 290 287 286 269 262 253 246 242 241
358 355 351 347 353 336 328 324 332 315 322 326 331 336 339 344 348 353 352 349 347 346 345 345 344 342 340 337 333 331 327 323 321 318 312 308 307 303 298 293 289 285 280 277 263 255 246 241 234
353 348 343 343 341 329 316 312 313 311 315 318 322 328 336 342 351 352 351 348 347 347 347 345 344 342 340 337 334 331 329 325 320 320 317 311 307 303 298 292 288 284 278 271 274 259 251 240 234
349 343 340 339 344 338 329 316 317 300 302 310 319 327 334 339 343 348 348 347 346 345 345 344 343 341 339 337 335 332 328 326 325 324 319 315 308 304 297 296 289 282 279 269 266 269 254 241 224
344 341 338 335 338 331 327 320 320 319 314 318 325 332 337 337 339 342 344 344 344 344 344 343 342 341 340 338 335 333 332 331 329 328 325 320 312 304 296 295 289 280 275 265 263 262 263 246 224
337 345 342 338 335 331 342 324 328 325 317 315 320 328 335 339 342 343 343 343 343 343 343 342 342 340 339 339 337 335 333 331 331 329 323 315 312 292 291 296 296 282 267 260 253 255 258 263 225
339 345 339 333 327 326 326 323 331 332 319 312 317 328 335 340 343 342 342 342 342 342 342 342 340 339 339 339 340 337 336 334 332 330 326 319 304 291 291 295 297 281 266 266 254 252 258 259 241
341 337 335 332 332 324 326 319 331 329 319 316 316 327 334 339 341 341 341 341 341 342 342 339 338 339 339 340 341 339 337 335 333 332 328 323 300 293 293 300 296 279 263 262 261 252 256 252 251
342 339 336 334 332 324 336 328 316 325 329 315 315 325 334 340 339 339 339 340 339 339 339 338 338 338 338 339 340 340 338 336 334 331 328 325 302 291 292 296 294 274 262 262 260 257 254 254 262
335 337 336 329 327 323 328 323 331 336 340 340 333 332 335 337 337 337 339 339 338 338 338 338 338 337 337 339 340 340 339 337 335 331 325 321 315 294 291 290 293 275 263 258 264 256 253 247 252
337 330 335 326 325 322 326 328 332 337 339 335 330 329 331 334 335 337 338 338 337 337 338 338 338 337 338 339 339 340 340 337 335 330 323 316 315 302 290 287 290 278 261 259 260 255 253 249 251
327 333 330 330 325 323 324 321 321 324 318 320 320 323 328 332 333 335 337 336 337 337 338 339 338 337 338 339 340 340 339 338 335 329 323 316 310 306 293 283 277 271 268 259 260 259 255 255 250
324 321 324 323 318 320 322 323 333 320 313 312 317 322 326 330 333 334 335 335 336 337 339 339 338 338 339 339 340 340 340 339 335 330 326 319 310 302 288 278 275 272 267 257 254 253 255 255 251
318 314 312 314 318 312 311 305 320 319 314 313 318 322 326 330 332 334 334 335 336 337 339 338 339 339 339 339 340 340 340 339 336 333 332 326 317 303 280 275 268 267 266 260 252 253 252 249 248